When you browse on this site, cookies collect data to enhance your experience and personalize the content and advertising you see.
Visit our Privacy Policy to learn more. By continuing to use the site, you agree to this use of cookies and data.
  • In Österreich
  • Länderverzeichnis
  • Für 7 Tage
  • Wassertemperatur
  • Satellitenkarten
  • Wetterkarte
  • News
  • Widgets
  • user-avatar
    Anmelden

    Stündliche Wetter Lyubovichi

    Heute, 19 Juli, Freitag

    Zeit Temperatur Niederschläge Wind Luftdruck Luftfeuchtigkeit
    00:00 +13°C° 0 mm 3 m/S 747 mmHg 95%
    01:00 +13°C° 0 mm 3 m/S 748 mmHg 96%
    02:00 +13°C° 0 mm 2 m/S 748 mmHg 96%
    03:00 +13°C° 0 mm 2 m/S 748 mmHg 96%
    04:00 +13°C° 0 mm 2 m/S 748 mmHg 97%
    05:00 +13°C° 0 mm 2 m/S 749 mmHg 97%
    06:00 +15°C° 0 mm 2 m/S 749 mmHg 91%
    07:00 +16°C° 0 mm 3 m/S 749 mmHg 86%
    08:00 +18°C° 0 mm 3 m/S 749 mmHg 81%
    09:00 +20°C° 0.1 mm 3 m/S 749 mmHg 74%
    10:00 +21°C° 0.1 mm 3 m/S 749 mmHg 66%
    11:00 +24°C° 0.1 mm 3 m/S 749 mmHg 59%
    12:00 +24°C° 0.2 mm 3 m/S 749 mmHg 60%
    13:00 +23°C° 0.2 mm 4 m/S 749 mmHg 60%
    14:00 +25°C° 0.2 mm 4 m/S 749 mmHg 60%
    15:00 +24°C° 0.4 mm 3 m/S 749 mmHg 63%
    16:00 +24°C° 0.4 mm 3 m/S 749 mmHg 65%
    17:00 +24°C° 0.4 mm 3 m/S 749 mmHg 67%
    18:00 +21°C° 0.3 mm 2 m/S 749 mmHg 74%
    19:00 +20°C° 0.3 mm 2 m/S 750 mmHg 81%
    20:00 +19°C° 0.3 mm 1 m/S 750 mmHg 87%
    21:00 +18°C° 0 mm 1 m/S 750 mmHg 89%
    22:00 +16°C° 0 mm 1 m/S 750 mmHg 90%
    23:00 +15°C° 0 mm 1 m/S 750 mmHg 92%

    Morgen, 20 Juli, Samstag

    Zeit Temperatur Niederschläge Wind Luftdruck Luftfeuchtigkeit
    00:00 +15°C° 0 mm 1 m/S 751 mmHg 92%
    01:00 +15°C° 0 mm 1 m/S 751 mmHg 92%
    02:00 +14°C° 0 mm 1 m/S 751 mmHg 93%
    03:00 +14°C° 0 mm 1 m/S 751 mmHg 93%
    04:00 +14°C° 0 mm 1 m/S 751 mmHg 93%
    05:00 +14°C° 0 mm 1 m/S 751 mmHg 93%
    06:00 +16°C° 0 mm 1 m/S 752 mmHg 86%
    07:00 +19°C° 0 mm 1 m/S 752 mmHg 80%
    08:00 +21°C° 0 mm 1 m/S 752 mmHg 74%
    09:00 +22°C° 0 mm 1 m/S 752 mmHg 67%
    10:00 +24°C° 0 mm 1 m/S 752 mmHg 59%
    11:00 +25°C° 0 mm 1 m/S 753 mmHg 52%
    12:00 +26°C° 0 mm 1 m/S 752 mmHg 52%
    13:00 +26°C° 0 mm 1 m/S 752 mmHg 51%
    14:00 +26°C° 0 mm 1 m/S 752 mmHg 50%
    15:00 +26°C° 0 mm 1 m/S 752 mmHg 51%
    16:00 +26°C° 0 mm 1 m/S 752 mmHg 51%
    17:00 +24°C° 0 mm 0 m/S 752 mmHg 52%
    18:00 +22°C° 0 mm 0 m/S 752 mmHg 58%
    19:00 +20°C° 0 mm 0 m/S 752 mmHg 65%
    20:00 +20°C° 0 mm 1 m/S 752 mmHg 71%
    21:00 +17°C° 0 mm 0 m/S 752 mmHg 75%
    22:00 +16°C° 0 mm 0 m/S 753 mmHg 78%
    23:00 +16°C° 0 mm 0 m/S 753 mmHg 81%

    übermorgen, 21 Juli, Sonntag

    Zeit Temperatur Niederschläge Wind Luftdruck Luftfeuchtigkeit
    00:00 +16°C° 0 mm 1 m/S 753 mmHg 83%
    01:00 +16°C° 0 mm 1 m/S 753 mmHg 85%
    02:00 +16°C° 0 mm 1 m/S 753 mmHg 87%
    03:00 +16°C° 0 mm 1 m/S 753 mmHg 87%
    04:00 +15°C° 0 mm 1 m/S 753 mmHg 88%
    05:00 +15°C° 0 mm 1 m/S 753 mmHg 89%
    06:00 +18°C° 0 mm 1 m/S 753 mmHg 82%
    07:00 +18°C° 0 mm 0 m/S 753 mmHg 75%
    08:00 +21°C° 0 mm 0 m/S 753 mmHg 68%
    09:00 +24°C° 0 mm 1 m/S 753 mmHg 63%
    10:00 +26°C° 0 mm 1 m/S 753 mmHg 59%
    11:00 +27°C° 0 mm 1 m/S 753 mmHg 54%
    12:00 +28°C° 0 mm 1 m/S 753 mmHg 52%
    13:00 +28°C° 0 mm 1 m/S 752 mmHg 51%
    14:00 +29°C° 0 mm 1 m/S 752 mmHg 49%
    15:00 +28°C° 0 mm 1 m/S 752 mmHg 52%
    16:00 +28°C° 0 mm 1 m/S 752 mmHg 56%
    17:00 +27°C° 0 mm 1 m/S 751 mmHg 60%
    18:00 +26°C° 0.1 mm 1 m/S 751 mmHg 66%
    19:00 +24°C° 0.1 mm 1 m/S 751 mmHg 72%
    20:00 +23°C° 0.1 mm 1 m/S 751 mmHg 78%
    21:00 +21°C° 0.1 mm 2 m/S 751 mmHg 82%
    22:00 +20°C° 0.1 mm 2 m/S 751 mmHg 85%
    23:00 +19°C° 0.1 mm 2 m/S 751 mmHg 89%

    22 Juli, Montag

    Zeit Temperatur Niederschläge Wind Luftdruck Luftfeuchtigkeit
    00:00 +19°C° 0.9 mm 2 m/S 750 mmHg 91%
    01:00 +19°C° 0.9 mm 2 m/S 750 mmHg 94%
    02:00 +19°C° 0.9 mm 2 m/S 750 mmHg 97%
    03:00 +19°C° 0.7 mm 2 m/S 750 mmHg 97%
    04:00 +18°C° 0.7 mm 2 m/S 750 mmHg 97%
    05:00 +18°C° 0.7 mm 2 m/S 750 mmHg 97%
    06:00 +19°C° 0 mm 2 m/S 750 mmHg 95%
    07:00 +19°C° 0 mm 2 m/S 750 mmHg 94%
    08:00 +19°C° 0 mm 3 m/S 750 mmHg 92%
    09:00 +20°C° 0 mm 3 m/S 750 mmHg 86%
    10:00 +22°C° 0 mm 3 m/S 750 mmHg 80%
    11:00 +24°C° 0 mm 3 m/S 750 mmHg 74%
    12:00 +25°C° 0.8 mm 3 m/S 750 mmHg 75%
    13:00 +25°C° 0.8 mm 4 m/S 750 mmHg 76%
    14:00 +26°C° 0.8 mm 4 m/S 750 mmHg 76%
    15:00 +25°C° 0.6 mm 4 m/S 750 mmHg 77%
    16:00 +25°C° 0.6 mm 4 m/S 750 mmHg 77%
    17:00 +25°C° 0.6 mm 4 m/S 750 mmHg 77%
    18:00 +23°C° 0.1 mm 4 m/S 750 mmHg 81%
    19:00 +21°C° 0.1 mm 3 m/S 750 mmHg 85%
    20:00 +20°C° 0.1 mm 3 m/S 750 mmHg 88%
    21:00 +19°C° 0 mm 3 m/S 750 mmHg 88%
    22:00 +19°C° 0 mm 3 m/S 750 mmHg 87%
    23:00 +18°C° 0 mm 4 m/S 750 mmHg 86%

    23 Juli, Dienstag

    Zeit Temperatur Niederschläge Wind Luftdruck Luftfeuchtigkeit
    00:00 +17°C° 0 mm 4 m/S 750 mmHg 88%
    01:00 +17°C° 0 mm 3 m/S 750 mmHg 89%
    02:00 +16°C° 0 mm 3 m/S 750 mmHg 91%
    03:00 +16°C° 0 mm 3 m/S 750 mmHg 91%
    04:00 +16°C° 0 mm 3 m/S 750 mmHg 92%
    05:00 +14°C° 0 mm 3 m/S 750 mmHg 93%
    06:00 +15°C° 0 mm 4 m/S 750 mmHg 91%
    07:00 +15°C° 0 mm 4 m/S 750 mmHg 89%
    08:00 +17°C° 0 mm 4 m/S 750 mmHg 87%
    09:00 +18°C° 0.1 mm 4 m/S 750 mmHg 85%
    10:00 +19°C° 0.1 mm 4 m/S 750 mmHg 83%
    11:00 +20°C° 0.1 mm 4 m/S 750 mmHg 81%
    12:00 +20°C° 0.3 mm 4 m/S 750 mmHg 81%
    13:00 +20°C° 0.3 mm 5 m/S 750 mmHg 82%
    14:00 +20°C° 0.3 mm 5 m/S 750 mmHg 82%
    15:00 +20°C° 0.8 mm 5 m/S 750 mmHg 84%
    16:00 +20°C° 0.8 mm 5 m/S 750 mmHg 86%
    17:00 +20°C° 0.8 mm 5 m/S 750 mmHg 88%
    18:00 +19°C° 0.3 mm 5 m/S 750 mmHg 90%
    19:00 +18°C° 0.3 mm 4 m/S 750 mmHg 92%
    20:00 +17°C° 0.3 mm 4 m/S 750 mmHg 94%
    21:00 +17°C° 0 mm 4 m/S 751 mmHg 94%
    22:00 +16°C° 0 mm 3 m/S 751 mmHg 95%
    23:00 +16°C° 0 mm 3 m/S 751 mmHg 95%

    24 Juli, Mittwoch

    Zeit Temperatur Niederschläge Wind Luftdruck Luftfeuchtigkeit
    00:00 +14°C° 0 mm 3 m/S 751 mmHg 95%
    01:00 +14°C° 0 mm 3 m/S 751 mmHg 95%
    02:00 +13°C° 0 mm 3 m/S 751 mmHg 96%
    03:00 +13°C° 0 mm 3 m/S 751 mmHg 95%
    04:00 +13°C° 0 mm 3 m/S 751 mmHg 94%
    05:00 +13°C° 0 mm 3 m/S 751 mmHg 94%
    06:00 +14°C° 0 mm 4 m/S 751 mmHg 88%
    07:00 +17°C° 0 mm 4 m/S 751 mmHg 82%
    08:00 +17°C° 0 mm 5 m/S 751 mmHg 77%
    09:00 +19°C° 0 mm 5 m/S 751 mmHg 71%
    10:00 +20°C° 0 mm 5 m/S 750 mmHg 65%
    11:00 +21°C° 0 mm 5 m/S 750 mmHg 59%
    12:00 +22°C° 0 mm 5 m/S 750 mmHg 60%
    13:00 +22°C° 0 mm 4 m/S 750 mmHg 61%
    14:00 +22°C° 0 mm 4 m/S 750 mmHg 62%
    15:00 +21°C° 0.1 mm 3 m/S 750 mmHg 64%
    16:00 +21°C° 0.1 mm 3 m/S 750 mmHg 67%
    17:00 +21°C° 0.1 mm 2 m/S 750 mmHg 70%
    18:00 +20°C° 0 mm 2 m/S 750 mmHg 74%
    19:00 +18°C° 0 mm 2 m/S 750 mmHg 78%
    20:00 +17°C° 0 mm 2 m/S 750 mmHg 83%
    21:00 +17°C° 0 mm 2 m/S 750 mmHg 85%
    22:00 +16°C° 0 mm 2 m/S 750 mmHg 87%
    23:00 +15°C° 0 mm 2 m/S 750 mmHg 89%
    Mehr zeigen